Milford, UT

12:26 PM MST on December 07, 2016 (GMT -0700)
Milford Municipal

Weather History for KMLF - October, 2011

Change the Weather History Date:

Sunday, October 30, 2011

  Actual Average Record
Temperature  
Mean Temperature 46 °F -  
Max Temperature 66 °F 55 °F 77 °F (2008)
Min Temperature 26 °F 26 °F 18 °F (1999)
Degree Days  
Heating Degree Days 19    
Moisture  
Dew Point 22 °F    
Average Humidity 46    
Maximum Humidity 78    
Minimum Humidity 22    
Precipitation  
Precipitation 0.00 in - - ()
Sea Level Pressure  
Sea Level Pressure 30.24 in    
Wind  
Wind Speed 6 mph (WNW)    
Max Wind Speed 12 mph    
Max Gust Speed -    
Visibility 10 miles    
Events      
Averages and records for this station are not official NWS values.
T = Trace of Precipitation, MM = Missing Value Source: NWS Daily Summary

Daily Weather History Graph

Daily Weather History Graph

Search for Another Location

Airport or City:

Trip Planner

Search our weather history database for the weather conditions in past years. The results will help you decide how hot, cold, wet, or windy it might be!

Date:

Astronomy

Oct. 30, 2011 Rise Set
Actual Time 7:56 AM MDT 6:34 PM MDT
Civil Twilight 7:28 AM MDT 7:02 PM MDT
Nautical Twilight 6:57 AM MDT 7:33 PM MDT
Astronomical Twilight 6:26 AM MDT 8:04 PM MDT
Moon 12:16 PM MDT (10/30) 10:09 PM MDT (10/30)
Length of Visible Light 11h 33m
Length of Day
10h 38m
Waxing Crescent, 20% of the Moon is Illuminated
Oct 30
Waxing Crescent
Nov 2
First Quarter
Nov 10
Full
Nov 18
Last Quarter
Nov 24
New

Hourly Weather History & Observations

Time (MDT) Temp. Windchill Dew Point Humidity Pressure Visibility Wind Dir Wind Speed Gust Speed Precip Events Conditions
12:52 AM 37.0 °F 30.4 °F 16.0 °F 42% 30.22 in 10.0 mi WNW 9.2 mph - N/A   Clear
1:00 AM - - - N/A% - - North - - N/A   Unknown
1:52 AM 37.0 °F 33.3 °F 16.0 °F 42% 30.22 in 10.0 mi West 4.6 mph - N/A   Clear
2:52 AM 30.9 °F 25.2 °F 19.9 °F 64% 30.23 in 10.0 mi South 5.8 mph - N/A   Clear
3:52 AM 30.9 °F - 19.0 °F 61% 30.22 in 10.0 mi Calm Calm - N/A   Clear
4:52 AM 32.0 °F 27.5 °F 18.0 °F 56% 30.23 in 10.0 mi West 4.6 mph - N/A   Clear
5:52 AM 26.1 °F - 19.9 °F 78% 30.26 in 10.0 mi Calm Calm - N/A   Clear
6:52 AM 26.1 °F 17.6 °F 19.9 °F 78% 30.30 in 10.0 mi SSW 8.1 mph - N/A   Clear
7:52 AM 27.0 °F 21.6 °F 21.0 °F 78% 30.33 in 10.0 mi SW 4.6 mph - N/A   Clear
8:52 AM 30.0 °F 26.5 °F 23.0 °F 75% 30.35 in 10.0 mi SSW 3.5 mph - N/A   Clear
9:52 AM 39.9 °F 36.7 °F 25.0 °F 55% 30.34 in 10.0 mi South 4.6 mph - N/A   Clear
10:52 AM 48.0 °F - 21.9 °F 36% 30.30 in 10.0 mi Calm Calm - N/A   Clear
11:52 AM 55.9 °F - 21.9 °F 27% 30.29 in 10.0 mi Calm Calm - N/A   Clear
12:52 PM 60.1 °F - 21.9 °F 23% 30.25 in 10.0 mi Variable 5.8 mph - N/A   Clear
1:52 PM 63.0 °F - 25.0 °F 24% 30.20 in 10.0 mi North 10.4 mph - N/A   Clear
2:52 PM 66.0 °F - 26.1 °F 22% 30.18 in 10.0 mi NE 11.5 mph - N/A   Clear
3:52 PM 66.0 °F - 26.1 °F 22% 30.17 in 10.0 mi North 10.4 mph - N/A   Clear
4:52 PM 64.9 °F - 25.0 °F 22% 30.16 in 10.0 mi North 10.4 mph - N/A   Clear
5:52 PM 62.1 °F - 25.0 °F 24% 30.19 in 10.0 mi North 9.2 mph - N/A   Clear
6:52 PM 51.1 °F - 26.1 °F 38% 30.22 in 10.0 mi North 8.1 mph - N/A   Clear
7:52 PM 48.0 °F - 25.0 °F 41% 30.23 in 10.0 mi NNW 10.4 mph - N/A   Clear
8:52 PM 44.1 °F 39.0 °F 24.1 °F 45% 30.24 in 10.0 mi West 9.2 mph - N/A   Clear
9:52 PM 44.1 °F 42.5 °F 24.1 °F 45% 30.22 in 10.0 mi NW 3.5 mph - N/A   Clear
10:52 PM 42.1 °F 36.6 °F 24.1 °F 49% 30.20 in 10.0 mi West 9.2 mph - N/A   Clear
11:52 PM 36.0 °F 31.1 °F 24.1 °F 62% 30.19 in 10.0 mi South 5.8 mph - N/A   Clear